Columbus, OH

11:05 PM EST on February 19, 2017 (GMT -0500)
Port Columbus International

Weather History for KCMH - December, 2011

Change the Weather History Date:

Friday, December 16, 2011

  Actual Average Record
Temperature  
Mean Temperature 37 °F 33 °F  
Max Temperature 41 °F 40 °F 64 °F (1984)
Min Temperature 32 °F 27 °F -14 °F (1951)
Degree Days  
Heating Degree Days 28 32  
Month to date heating degree days 430 472  
Since 1 July heating degree days 1303 1486  
Cooling Degree Days 0 0  
Month to date cooling degree days 0 0  
Year to date cooling degree days 1262 1024  
Moisture  
Dew Point 25 °F    
Average Humidity 69    
Maximum Humidity 78    
Minimum Humidity 59    
Precipitation  
Precipitation 0.00 in 0.09 in 2.26 in (2000)
Month to date precipitation 2.79 1.55  
Year to date precipitation 52.31 37.89  
Snow  
Snow 0.00 in 0.20 in 1.80 in (1953)
Month to date snowfall T 2.1  
Since 1 July snowfall T 3.2  
Snow Depth 0.00 in    
Sea Level Pressure  
Sea Level Pressure 30.28 in    
Wind  
Wind Speed 7 mph (WNW)    
Max Wind Speed 23 mph    
Max Gust Speed 30 mph    
Visibility 10 miles    
Events      
T = Trace of Precipitation, MM = Missing Value Source: NWS Daily Summary

Daily Weather History Graph

Daily Weather History Graph

Search for Another Location

Airport or City:

Trip Planner

Search our weather history database for the weather conditions in past years. The results will help you decide how hot, cold, wet, or windy it might be!

Date:

Astronomy

Dec. 16, 2011 Rise Set
Actual Time 7:46 AM EST 5:07 PM EST
Civil Twilight 7:16 AM EST 5:37 PM EST
Nautical Twilight 6:42 AM EST 6:12 PM EST
Astronomical Twilight 6:09 AM EST 6:45 PM EST
Moon 11:39 PM EST (12/16) 11:32 AM EST (12/16)
Length of Visible Light 10h 21m
Length of Day
9h 20m
Waning Gibbous, 65% of the Moon is Illuminated
Dec 16
Waning Gibbous
Dec 17
Last Quarter
Dec 24
New
Jan 1
First Quarter
Jan 9
Full

Hourly Weather History & Observations

Time (EST) Temp. Windchill Dew Point Humidity Pressure Visibility Wind Dir Wind Speed Gust Speed Precip Events Conditions
12:51 AM 36.0 °F 25.6 °F 25.0 °F 64% 30.19 in 10.0 mi WNW 18.4 mph 28.8 mph N/A   Overcast
1:51 AM 35.6 °F 27.1 °F 24.8 °F 65% 30.20 in 10.0 mi WNW 12.7 mph 23.0 mph N/A   Overcast
2:18 AM 35.6 °F 28.6 °F 26.6 °F 70% 30.22 in 10.0 mi WNW 9.2 mph - N/A   Overcast
2:51 AM 35.6 °F 28.6 °F 26.6 °F 70% 30.23 in 10.0 mi West 9.2 mph - N/A   Overcast
3:33 AM 35.6 °F 28.6 °F 26.6 °F 70% 30.24 in 10.0 mi West 9.2 mph - N/A   Overcast
3:51 AM 35.1 °F 27.9 °F 26.1 °F 70% 30.25 in 10.0 mi West 9.2 mph - N/A   Overcast
4:51 AM 35.1 °F 28.6 °F 27.0 °F 72% 30.26 in 10.0 mi West 8.1 mph - N/A   Overcast
5:51 AM 33.1 °F 26.9 °F 26.1 °F 75% 30.29 in 10.0 mi West 6.9 mph - N/A   Overcast
6:51 AM 34.0 °F 29.8 °F 26.1 °F 73% 30.30 in 10.0 mi West 4.6 mph - N/A   Overcast
7:51 AM 33.1 °F 28.7 °F 25.0 °F 72% 30.29 in 10.0 mi WNW 4.6 mph - N/A   Overcast
8:51 AM 33.1 °F 28.7 °F 26.1 °F 75% 30.31 in 10.0 mi West 4.6 mph - N/A   Mostly Cloudy
9:51 AM 34.0 °F 29.8 °F 27.0 °F 75% 30.34 in 10.0 mi West 4.6 mph - N/A   Overcast
10:51 AM 35.6 °F 31.7 °F 26.6 °F 70% 30.33 in 10.0 mi West 4.6 mph - N/A   Overcast
11:51 AM 36.0 °F 33.3 °F 27.0 °F 70% 30.32 in 8.0 mi West 3.5 mph - N/A   Overcast
12:51 PM 32.0 °F 25.6 °F 26.6 °F 80% 30.27 in 8.0 mi Variable 6.9 mph - N/A   Overcast
1:51 PM 36.5 °F 33.9 °F 25.0 °F 63% 30.28 in 10.0 mi WNW 3.5 mph - N/A   Overcast
2:51 PM 37.4 °F 32.8 °F 26.6 °F 65% 30.25 in 10.0 mi NW 5.8 mph - N/A   Mostly Cloudy
3:51 PM 37.0 °F 31.6 °F 24.1 °F 59% 30.28 in 10.0 mi West 6.9 mph - N/A   Mostly Cloudy
4:51 PM 36.0 °F 32.1 °F 24.1 °F 62% 30.27 in 10.0 mi NNW 4.6 mph - N/A   Overcast
5:51 PM 36.0 °F 31.1 °F 25.0 °F 64% 30.27 in 10.0 mi North 5.8 mph - N/A   Overcast
6:51 PM 36.0 °F 32.1 °F 25.0 °F 64% 30.29 in 10.0 mi NNW 4.6 mph - N/A   Overcast
7:33 PM 35.6 °F 30.7 °F 26.6 °F 70% 30.27 in 10.0 mi NW 5.8 mph - N/A   Overcast
7:51 PM 36.0 °F 30.3 °F 26.1 °F 67% 30.30 in 10.0 mi NNW 6.9 mph - N/A   Overcast
8:40 PM 35.6 °F 29.2 °F 26.6 °F 70% 30.28 in 10.0 mi NNW 8.1 mph - N/A   Overcast
8:51 PM 36.0 °F 31.1 °F 26.1 °F 67% 30.30 in 10.0 mi NW 5.8 mph - N/A   Overcast
9:02 PM 35.6 °F 28.6 °F 24.8 °F 65% 30.27 in 10.0 mi NW 9.2 mph - N/A   Overcast
9:51 PM 35.1 °F 27.9 °F 24.1 °F 64% 30.31 in 10.0 mi NW 9.2 mph - N/A   Overcast
10:12 PM 33.8 °F 25.8 °F 23.0 °F 65% 30.28 in 10.0 mi NNW 10.4 mph - N/A   Overcast
10:43 PM 33.8 °F 25.8 °F 23.0 °F 65% 30.28 in 10.0 mi NW 10.4 mph - N/A   Overcast
10:51 PM 34.0 °F 27.2 °F 24.1 °F 67% 30.30 in 10.0 mi NW 8.1 mph - N/A   Overcast
11:51 PM 33.1 °F 25.5 °F 23.0 °F 66% 30.29 in 10.0 mi NW 9.2 mph - N/A   Overcast